Weather History for Binghamton, NY

Change the Weather History Date:

Wednesday, September 7, 2011

  Actual Average Record
Temperature  
Mean Temperature 59 °F 63 °F  
Max Temperature 61 °F 72 °F 90 °F (2007)
Min Temperature 56 °F 54 °F 35 °F (1984)
Degree Days  
Heating Degree Days 6 4  
Month to date heating degree days 15 23  
Since 1 July heating degree days 37 86  
Cooling Degree Days 0 2  
Month to date cooling degree days 25 14  
Year to date cooling degree days 509 362  
Growing Degree Days 8 (Base 50)    
Moisture  
Dew Point 57 °F    
Average Humidity 97    
Maximum Humidity 100    
Minimum Humidity 93    
Precipitation  
Precipitation 7.49 in 0.11 in 7.49 in (2011)
Month to date precipitation 8.67 0.80  
Year to date precipitation 49.86 27.01  
Snow  
Snow 0.00 in 0.00 in 0.00 in (2002)
Month to date snowfall 0.0 0.0  
Since 1 July snowfall 0.0 0.0  
Since 1 September snowfall 0.0 0.0  
Snow Depth 0.00 in    
Sea Level Pressure  
Sea Level Pressure 30.11 in    
Wind  
Wind Speed 10 mph (East)    
Max Wind Speed 18 mph    
Max Gust Speed 26 mph    
Visibility 3 miles    
Events Fog , Rain    
T = Trace of Precipitation, MM = Missing Value Source: NWS Daily Summary

Daily Weather History Graph

Daily Weather History Graph

Search for Another Location

Airport:

Trip Planner

Search our weather history database for the weather conditions in past years. The results will help you decide how hot, cold, wet, or windy it might be!

Date:

Astronomy

Sep. 07, 2011 Rise Set
Actual Time 6:35 AM EDT 7:28 PM EDT
Civil Twilight 6:06 AM EDT 7:56 PM EDT
Nautical Twilight 5:32 AM EDT 8:30 PM EDT
Astronomical Twilight 4:57 AM EDT 9:05 PM EDT
Moon 4:48 PM EDT (9/7) 1:44 AM EDT (9/7)
Length of Visible Light 13h 49m
Length of Day
12h 52m
Waxing Gibbous, 79% of the Moon is Illuminated
Sep 7
Waxing Gibbous
Sep 12
Full
Sep 20
Last Quarter
Sep 27
New
Oct 3
First Quarter

Hourly Weather History & Observations

Time (EDT) Temp. Dew Point Humidity Pressure Visibility Wind Dir Wind Speed Gust Speed Precip Events Conditions
12:42 AM 55.4 °F 55.4 °F 100% 30.15 in 6.0 mi NNE 8.1 mph - 0.03 in Rain Light Rain
12:51 AM 55.4 °F 55.4 °F 100% 30.15 in 4.0 mi NE 8.1 mph - 0.04 in Rain Light Rain
12:53 AM 55.9 °F 55.0 °F 97% 30.15 in 4.0 mi NE 9.2 mph - 0.04 in Rain Light Rain
1:53 AM 55.9 °F 55.0 °F 97% 30.13 in 9.0 mi East 9.2 mph - 0.03 in Rain Light Rain
2:02 AM 55.4 °F 55.4 °F 100% 30.12 in 10.0 mi East 9.2 mph - 0.00 in Rain Light Rain
2:15 AM 55.4 °F 55.4 °F 100% 30.11 in 8.0 mi East 12.7 mph - 0.01 in Rain Light Rain
2:53 AM 55.9 °F 55.0 °F 97% 30.09 in 10.0 mi East 11.5 mph - 0.01 in   Overcast
3:24 AM 55.4 °F 55.4 °F 100% 30.12 in 10.0 mi Variable 3.5 mph - N/A   Overcast
3:53 AM 55.9 °F 55.0 °F 97% 30.13 in 9.0 mi NE 4.6 mph - 0.01 in Rain Light Rain
4:53 AM 55.9 °F 55.0 °F 97% 30.12 in 10.0 mi ENE 8.1 mph - 0.04 in Rain Light Rain
5:53 AM 55.4 °F 55.4 °F 100% 30.12 in 4.0 mi ENE 9.2 mph - N/A Rain Rain
6:53 AM 55.9 °F 55.0 °F 97% 30.13 in 10.0 mi East 9.2 mph - 0.06 in Rain Light Rain
7:19 AM 55.4 °F 55.4 °F 100% 30.12 in 2.5 mi East 15.0 mph 21.9 mph 0.05 in Rain Rain
7:40 AM 55.4 °F 55.4 °F 100% 30.13 in 3.0 mi East 8.1 mph - 0.12 in Rain Rain
7:53 AM 55.9 °F 55.0 °F 97% 30.11 in 4.0 mi East 12.7 mph - 0.13 in Rain Rain
8:11 AM 55.4 °F 55.4 °F 100% 30.12 in 2.5 mi ENE 8.1 mph - 0.05 in Rain Rain
8:43 AM 55.4 °F 55.4 °F 100% 30.11 in 1.8 mi East 10.4 mph - 0.20 in Rain Heavy Rain
8:53 AM 55.9 °F 55.9 °F 100% 30.12 in 1.5 mi East 11.5 mph - 0.33 in Rain Heavy Rain
9:16 AM 55.4 °F 55.4 °F 100% 30.12 in 1.5 mi East 11.5 mph - 0.23 in Rain Heavy Rain
9:43 AM 55.4 °F 55.4 °F 100% 30.15 in 0.5 mi Variable 3.5 mph - 0.60 in Fog , Rain Heavy Rain
9:53 AM 57.0 °F 55.9 °F 96% 30.14 in 0.5 mi ESE 8.1 mph - 0.88 in Fog , Rain Heavy Rain
10:30 AM 57.2 °F 57.2 °F 100% 30.14 in 1.5 mi ESE 12.7 mph - 0.58 in Rain Heavy Rain
10:37 AM 57.2 °F 57.2 °F 100% 30.13 in 1.2 mi ESE 10.4 mph - 0.67 in Rain Heavy Rain
10:53 AM 57.2 °F 57.2 °F 100% 30.14 in 1.0 mi ESE 10.4 mph - N/A Rain Heavy Rain
11:17 AM 57.2 °F 57.2 °F 100% 30.12 in 2.0 mi ESE 13.8 mph - 0.25 in Rain Heavy Rain
11:26 AM 57.2 °F 57.2 °F 100% 30.12 in 1.5 mi ESE 12.7 mph - 0.37 in Rain Heavy Rain
11:38 AM 57.2 °F 57.2 °F 100% 30.11 in 2.0 mi ESE 12.7 mph - 0.45 in Rain Heavy Rain
11:50 AM 59.0 °F 57.2 °F 94% 30.12 in 1.5 mi SE 9.2 mph - 0.57 in Rain Heavy Rain
11:53 AM 59.0 °F 57.2 °F 94% 30.12 in 1.5 mi East 10.4 mph - N/A Rain Heavy Rain
12:24 PM 59.0 °F 57.2 °F 94% 30.14 in 0.8 mi Calm Calm - 0.30 in Rain Heavy Rain
12:35 PM 59.0 °F 57.2 °F 94% 30.13 in 0.8 mi East 6.9 mph - 0.51 in Rain Heavy Rain
12:53 PM 59.0 °F 59.0 °F 100% 30.14 in 1.0 mi ESE 10.4 mph - 0.85 in Rain Heavy Rain
1:23 PM 59.0 °F 59.0 °F 100% 30.13 in 2.0 mi East 9.2 mph - 0.37 in Rain Heavy Rain
1:34 PM 59.0 °F 59.0 °F 100% 30.13 in 1.8 mi East 10.4 mph - 0.44 in Rain Heavy Rain
1:46 PM 59.0 °F 59.0 °F 100% 30.12 in 2.0 mi East 11.5 mph - 0.52 in Rain Heavy Rain
1:53 PM 59.0 °F 59.0 °F 100% 30.11 in 1.5 mi East 10.4 mph - 0.59 in Rain Heavy Rain
2:00 PM 59.0 °F 59.0 °F 100% 30.11 in 1.5 mi East 10.4 mph - N/A Rain Heavy Rain
2:13 PM 60.8 °F 59.0 °F 94% 30.11 in 2.0 mi East 13.8 mph - 0.14 in Rain Rain
2:34 PM 60.8 °F 59.0 °F 94% 30.09 in 1.8 mi East 16.1 mph 21.9 mph 0.27 in Rain Heavy Rain
2:39 PM 60.8 °F 59.0 °F 94% 30.09 in 3.0 mi East 17.3 mph 21.9 mph 0.28 in Rain Light Rain
2:51 PM 60.8 °F 59.0 °F 94% 30.09 in 3.0 mi East 15.0 mph - 0.30 in Rain Light Rain
2:53 PM 60.1 °F 59.0 °F 96% 30.09 in 3.0 mi East 15.0 mph - 0.31 in Rain Rain
3:01 PM 60.8 °F 59.0 °F 94% 30.09 in 2.5 mi East 17.3 mph - 0.03 in Rain Heavy Rain
3:19 PM 60.8 °F 59.0 °F 94% 30.11 in 1.2 mi ESE 11.5 mph - 0.18 in Rain Heavy Rain
3:53 PM 59.0 °F 59.0 °F 100% 30.09 in 2.0 mi East 11.5 mph - 0.58 in Rain Heavy Rain
4:06 PM 59.0 °F 57.2 °F 94% 30.09 in 3.0 mi East 11.5 mph - 0.09 in Rain Rain
4:24 PM 59.0 °F 57.2 °F 94% 30.08 in 2.5 mi East 11.5 mph - 0.18 in Rain Rain
4:33 PM 59.0 °F 57.2 °F 94% 30.08 in 2.0 mi East 11.5 mph - 0.23 in Rain Rain
4:53 PM 59.0 °F 59.0 °F 100% 30.09 in 2.0 mi East 11.5 mph - 0.30 in Rain Rain
5:13 PM 59.0 °F 59.0 °F 100% 30.09 in 2.0 mi East 10.4 mph - 0.08 in Rain Rain
5:25 PM 59.0 °F 59.0 °F 100% 30.10 in 2.0 mi East 10.4 mph - 0.13 in Rain Light Rain
5:53 PM 59.0 °F 57.9 °F 96% 30.09 in 2.0 mi East 12.7 mph - 0.23 in Rain Rain
6:36 PM 59.0 °F 57.2 °F 94% 30.08 in 2.0 mi East 9.2 mph - 0.07 in Rain Light Rain
6:53 PM 59.0 °F 57.9 °F 96% 30.09 in 2.0 mi East 5.8 mph - 0.08 in Rain Light Rain
7:15 PM 59.0 °F 57.2 °F 94% 30.10 in 1.0 mi NE 5.8 mph - 0.01 in Rain Light Rain
7:53 PM 59.0 °F 57.9 °F 96% 30.09 in 1.0 mi NE 8.1 mph - 0.04 in Rain Light Rain
8:53 PM 59.0 °F 57.9 °F 96% 30.11 in 1.0 mi NNE 9.2 mph - 0.14 in Rain Rain
9:18 PM 59.0 °F 59.0 °F 100% 30.12 in 1.0 mi Calm Calm - 0.34 in Rain Heavy Rain
9:35 PM 59.0 °F 59.0 °F 100% 30.12 in 1.0 mi East 4.6 mph - 0.47 in Rain Rain
9:53 PM 59.0 °F 57.9 °F 96% 30.12 in 1.0 mi NE 6.9 mph - 0.52 in Rain Rain
10:53 PM 59.0 °F 57.9 °F 96% 30.10 in 1.0 mi East 5.8 mph - 0.31 in Rain Rain
11:17 PM 59.0 °F 57.2 °F 94% 30.09 in 1.0 mi East 9.2 mph - 0.07 in Rain Heavy Rain
11:28 PM 59.0 °F 59.0 °F 100% 30.08 in 2.0 mi East 10.4 mph - 0.22 in Rain Rain
11:36 PM 60.8 °F 59.0 °F 94% 30.12 in 6.0 mi SSE 12.7 mph - 0.24 in Rain Light Rain
11:42 PM 59.0 °F 59.0 °F 100% 30.09 in 2.5 mi East 9.2 mph - 0.28 in Rain Heavy Rain
11:51 PM 60.8 °F 59.0 °F 94% 30.08 in 3.0 mi ENE 10.4 mph - 0.40 in Rain Rain
11:53 PM 60.1 °F 59.0 °F 96% 30.07 in 4.0 mi ENE 12.7 mph - 0.40 in Rain Rain